STARLINK-4337, 53053

Orbit data source: Space-Track

STARLINK-4337, 53053 is a payload satellite owned by SpaceX/Seattle (US) in SSO that was launched on Mon, 11 Jul 2022 UTC via an FALCON 9 launch vehicle from the Air Force Western Test Range (AFWTR). Payload-class satellites include a variety of spacecraft equipped with specific instruments for various scientific and technological missions. These include communications satellites like Starlink; space stations such as the ISS; scientific satellites like the Hubble; Earth observation satellites from companies like Planet Labs, Umbra, and HawkEye 360; GPS; miniature CubeSats for education and research; and military/defense satellites.

Loading next visibility...
Identifier
53053, 2022-077L
Orbit
SSO
Country
Flag of USUS
Related business
Manufacturer
SpaceX/Seattle
Mission
Operational Commercial Communications
Bus & Motor
STARLINK, Unknown motor
Mass
297 kg wet, ~275 kg dry
Launch date (UTC)
2022-07-11 (3 years ago)
Launch vehicle
FALCON 9
Launch site
Air Force Western Test Range (AFWTR)
Object type
Payload
Rocket body
Debris
Shape & HBR
Box + 1 Pan, 10.1 m
Radar Cross Section
13.562 m², Large (>1 m²)

Expand to show TLE details & history
Last TLE update: 1 day ago

TLE from 1 day ago
0 STARLINK-4337
1 53053U 22077L   25348.44257360  .00001608  00000-0  12974-3 0  9998
2 53053  97.6020 166.7654 0002518  62.3010 297.8469 15.01250465188129
Epoch: 2025-12-14T10:37Z
TLE epoch observation values (Epoch: 2025-12-14T10:37:18.359Z)
Latitude
-0.00006°
Longitude
-75.91652°
Altitude
565.282 km
Speed
7.579 km/s
True Right ascension
11h 07m 03s
True Declination
0° 00' 00"
Sunlit
Object was in daylight at epoch
Visualization orbit readout
Latitude
Unknown
Longitude
Unknown
Altitude
Unknown
Speed
Unknown
Apparent Right ascension
Unknown
Apparent Declination
Unknown
Sunlit
N/A
Visualization observer readout
Local Sidereal Time
13:20:31
Azimuth
Unknown
Elevation
Unknown
Doppler factor
Unknown
Orbital elements
Apogee altitude
561.786 km
Perigee altitude
558.292 km
Semi-major axis
6,938.176 km
Eccentricity
0.00025
Inclination
97.602°
RAAN
166.7654°
Arg. of periapsis
62.301°
True anomaly
297.82138°
Mean anomaly
297.8469°
Eccentric anomaly
297.83414°
Mean motion
3.75556 °/min
Orbital period
95.86 mins
BSTAR
0.00012974
Loading maneuver chart data...
Computing Atmospheric mass density...
Loading historical data...
Loading historical data...
Loading historical data...
Loading historical data...
Loading historical data...
Loading historical data...
Loading historical data...

Documentation

Showing up to 5 results
|